Forside
METAR-TAF:

METAR-TAF

Lufthavne :

Fort Madison Municipal Airport

Fort Madison, Iowa, USA

Breddekreds: 40-40N, længdekreds: 091-20W, højde: 221 m

Aktuelle vejr

Denne rapport blev lavet for 16 minutter siden, kl. 11:55 UTC
Vind 11 kt fra sydsydøst med vindstød på up til 15 kt
Temperatur -4°C
Fugtighed 74%
Tryk 1016 hPa
Sigt: 16.1 km
Overskyet i en højde af 2600 ft

METAR: KFSW 221155Z AUTO 15011G15KT 10SM OVC026 M04/M08 A3000 RMK AO2

Tid: 06:11 (12:11 UTC)


TAF: fraværende

Vejrobservationer og prognoser fra mere end 4000 lufthavne (METAR og TAF).

De gule og røde prikker repræsenterer de meteorologiske stationer.

Flyt musen over at se navnet på stationen.

Så klik over at se vejr observationer og prognoser.

At skifte det kort: Klik på de grønne knapper med et sort kors for at zoome ind; på den grønne knap med en bindestreg for at zoome ud; eller på de grønne pile for tilstødende kort.


METAR-TAF: